{"data":{"norad_id":49271,"intl_designator":"2011-037PF","name":"FREGAT DEB","alt_names":[],"object_type":"DEBRIS","status":"UNKNOWN","operator":null,"country":"CIS","launch_date":"2011-07-18","launch_site_code":"TYMSC","launch_vehicle":null,"mission":null,"orbit_class":"UNKNOWN","rcs_meters":null,"size_class":null,"mass_kg":null,"dimensions":null,"purposes":["station"],"wikipedia_slug":null,"has_3d_model":false,"image_url":null,"decayed_at":null,"tle_current":{"epoch":"2026-09-19T04:41:33.191520Z","epoch_age_seconds":127105,"freshness":"FRESH","line1":"1 49271U 11037PF  26262.19552305  .00010835  00000+0  15154-1 0  9996","line2":"2 49271  51.6468  78.6970 0944064 131.6853 236.8792 12.44551487236746","mean_motion":12.44551487,"eccentricity":0.0944064,"inclination_deg":51.6468,"raan_deg":78.697,"arg_perigee_deg":131.6853,"mean_anomaly_deg":236.8792,"bstar":0.015154,"rev_number":23674,"period_min":115.7043332511,"perigee_km":744.8137343781,"apogee_km":2229.9217038028,"semimajor_km":7865.5047190904,"source":"CELESTRAK","updated_at":"2026-09-20T09:00:28.693343Z"}}}